{"data":{"norad_id":48129,"intl_designator":"2021-027AP","name":"STARLINK-2471","alt_names":[],"object_type":"PAYLOAD","status":"ACTIVE","operator":null,"country":"US","launch_date":"2021-04-07","launch_site_code":"AFETR","launch_vehicle":null,"mission":null,"orbit_class":"UNKNOWN","rcs_meters":null,"size_class":null,"mass_kg":null,"dimensions":null,"purposes":["comms"],"wikipedia_slug":null,"has_3d_model":false,"image_url":null,"decayed_at":null,"tle_current":{"epoch":"2026-09-19T19:16:21.110304Z","epoch_age_seconds":90138,"freshness":"FRESH","line1":"1 48129U 21027AP  26262.80302211  .00001234  00000+0  51522-4 0  9999","line2":"2 48129  53.1616 342.2008 0001401  90.3110 269.8052 15.31703081302250","mean_motion":15.31703081,"eccentricity":0.0001401,"inclination_deg":53.1616,"raan_deg":342.2008,"arg_perigee_deg":90.311,"mean_anomaly_deg":269.8052,"bstar":5.1522e-5,"rev_number":30225,"period_min":94.012998854835,"perigee_km":469.77128456005,"apogee_km":471.69033732068,"semimajor_km":6848.8678109404,"source":"CELESTRAK","updated_at":"2026-09-20T09:00:38.767135Z"}}}